sat.trackr.live / text

‹ back to catalog

STARLINK-34680

NORAD 65356 · 2025-190F

PAYLOAD ACTIVE UNKNOWN

§ Identity

Operator
Country
US
Launch date
2025-08-28
Launch site
AFETR
Launch vehicle
Mass (kg)
RCS (m²)

Purposes: comms

External: N2YO · Heavens-Above · Gunter

§ Orbital elements

Epoch: 2026-05-25T01:29:14.980416Z

Period
94.11 min
Inclination
53.1589°
Eccentricity
0.0001424
Mean motion
15.30203430 rev/d
Perigee alt
474.2 km
Apogee alt
476.2 km
Semi-major
6,853.3 km
B*
3.2854e-4
RAAN
173.7533°
Arg perigee
83.9892°
Mean anomaly
276.1271°
Rev number
4,097

§ Raw data

STARLINK-346801 65356U 25190F   26145.06197894  .00009384  00000+0  32854-3 0  99922 65356  53.1589 173.7533 0001424  83.9892 276.1271 15.30203430 40974

JSON: /api/v1/satellites/65356 · /tle

For live sub-satellite position, see the globe view (requires WebGL).

§ Visibility from observer

Set your observer location to see the next 7 days of passes ≥ 10°. The values pass through the URL so the page stays shareable.

No JS? Fill the form by hand. The geolocation button needs JavaScript.